This is the latest recevied weather packets stored in our database for station/object KL1SF-7. If no packets are shown the sender has not sent any weather packets the latest 10 day(s).
| Time | Temp. | Humidity | Pressure | Rain* | Wind** | Luminosity | Snow |
|---|---|---|---|---|---|---|---|
| 1777480423 | 13.33° C | 22% | 1020.2 hPa | 0 mm | - | - | - |
| 1777479805 | 13.33° C | 22% | 1020.4 hPa | 0 mm | - | - | - |
| 1777479214 | 12.78° C | 23% | 1020.4 hPa | 0 mm | - | - | - |
| 1777478629 | 12.22° C | 24% | 1020.5 hPa | 0 mm | - | - | - |
| 1777478013 | 12.78° C | 23% | 1020.4 hPa | 0 mm | - | - | - |
| 1777477419 | 12.22° C | 24% | 1020.4 hPa | 0 mm | - | - | - |
| 1777476831 | 12.22° C | 24% | 1020.3 hPa | 0 mm | - | - | - |
| 1777476209 | 12.22° C | 24% | 1020.4 hPa | 0 mm | - | - | - |
| 1777475617 | 11.67° C | 25% | 1020.4 hPa | 0 mm | - | - | - |
| 1777475028 | 11.67° C | 24% | 1019.7 hPa | 0 mm | - | - | - |
| 1777474412 | 10.56° C | 27% | 1020.2 hPa | 0 mm | - | - | - |
| 1777473823 | 10° C | 27% | 1020.2 hPa | 0 mm | - | - | - |
| 1777473233 | 8.89° C | 30% | 1020.3 hPa | 0 mm | - | - | - |
| 1777472613 | 7.78° C | 34% | 1019.8 hPa | 0 mm | - | - | - |
| 1777472021 | 6.11° C | 38% | 1019.8 hPa | 0 mm | - | - | - |
| 1777471414 | 5° C | 42% | 1019.9 hPa | 0 mm | - | - | - |
| 1777470815 | 3.33° C | 47% | 1019.7 hPa | 0 mm | - | - | - |
| 1777470220 | 2.22° C | 52% | 1019.7 hPa | 0 mm | - | - | - |
| 1777469635 | 1.11° C | 53% | 1019.2 hPa | 0 mm | - | - | - |
| 1777469013 | 0.56° C | 53% | 1019.5 hPa | 0 mm | - | - | - |
| 1777468420 | 0° C | 53% | 1019.5 hPa | 0 mm | - | - | - |
| 1777467831 | 0.56° C | 52% | 1019.2 hPa | 0 mm | - | - | - |
| 1777467211 | 0.56° C | 51% | 1019.1 hPa | 0 mm | - | - | - |
| 1777466619 | 0.56° C | 50% | 1019.1 hPa | 0 mm | - | - | - |
| 1777466016 | 1.11° C | 49% | 1019.1 hPa | 0 mm | - | - | - |
* Rain since midnight (hover to see other rain measurements)
** Current wind speed in m/s (hover to see current wind gust speed)